Weather History for Dyersburg, TN

Change the Weather History Date:

Friday, February 25, 2011

  Actual Average Record
Temperature  
Mean Temperature 40 °F -  
Max Temperature 44 °F 50 °F 69 °F (1998)
Min Temperature 37 °F 36 °F 19 °F (2003)
Degree Days  
Heating Degree Days 24    
Moisture  
Dew Point 29 °F    
Average Humidity 65    
Maximum Humidity 76    
Minimum Humidity 61    
Precipitation  
Precipitation 0.00 in - - ()
Sea Level Pressure  
Sea Level Pressure 30.09 in    
Wind  
Wind Speed 12 mph (NNE)    
Max Wind Speed 18 mph    
Max Gust Speed 25 mph    
Visibility 10 miles    
Events      
Averages and records for this station are not official NWS values.
T = Trace of Precipitation, MM = Missing Value Source: NWS Daily Summary

Daily Weather History Graph

Daily Weather History Graph

Search for Another Location

Airport:

Trip Planner

Search our weather history database for the weather conditions in past years. The results will help you decide how hot, cold, wet, or windy it might be!

Date:

Astronomy

Feb. 25, 2011 Rise Set
Actual Time 6:33 AM CST 5:48 PM CST
Civil Twilight 6:07 AM CST 6:14 PM CST
Nautical Twilight 5:37 AM CST 6:44 PM CST
Astronomical Twilight 5:08 AM CST 7:13 PM CST
Moon 1:27 AM CST (2/25) 11:17 AM CST (2/25)
Length of Visible Light 12h 07m
Length of Day
11h 15m
Last Quarter, 42% of the Moon is Illuminated
Feb 25
Last Quarter
Mar 4
New
Mar 12
First Quarter
Mar 19
Full
Mar 26
Last Quarter

Hourly Weather History & Observations

Time (CST) Temp. Windchill Dew Point Humidity Pressure Visibility Wind Dir Wind Speed Gust Speed Precip Events Conditions
12:15 AM 44.6 °F 38.1 °F 37.4 °F 76% 29.71 in 10.0 mi West 13.8 mph 20.7 mph N/A   Overcast
12:35 AM 44.6 °F 38.1 °F 37.4 °F 76% 29.72 in 10.0 mi WNW 13.8 mph 20.7 mph N/A   Overcast
12:55 AM 44.6 °F 37.4 °F 37.4 °F 76% 29.74 in 10.0 mi WNW 16.1 mph 20.7 mph N/A   Overcast
1:15 AM 44.6 °F 38.1 °F 35.6 °F 71% 29.76 in 10.0 mi WNW 13.8 mph 23.0 mph N/A   Overcast
1:35 AM 42.8 °F 36.2 °F 35.6 °F 76% 29.78 in 10.0 mi WNW 12.7 mph 20.7 mph N/A   Overcast
1:55 AM 42.8 °F 35.4 °F 35.6 °F 76% 29.80 in 8.0 mi WNW 15.0 mph 20.7 mph N/A   Overcast
2:35 AM 42.8 °F 36.2 °F 35.6 °F 76% 29.82 in 9.0 mi WNW 12.7 mph 21.9 mph N/A   Overcast
2:55 AM 42.8 °F 36.6 °F 35.6 °F 76% 29.83 in 10.0 mi WNW 11.5 mph - N/A   Overcast
3:15 AM 42.8 °F 35.1 °F 33.8 °F 70% 29.85 in 10.0 mi NW 16.1 mph 20.7 mph N/A   Overcast
3:35 AM 42.8 °F 35.8 °F 33.8 °F 70% 29.87 in 10.0 mi NW 13.8 mph 19.6 mph N/A   Overcast
3:55 AM 42.8 °F 35.4 °F 33.8 °F 70% 29.90 in 10.0 mi NW 15.0 mph 21.9 mph N/A   Overcast
4:15 AM 41.0 °F 34.7 °F 33.8 °F 76% 29.92 in 8.0 mi NW 10.4 mph 18.4 mph N/A   Overcast
4:35 AM 39.2 °F 30.8 °F 30.2 °F 70% 29.94 in 10.0 mi NNW 15.0 mph 25.3 mph N/A   Overcast
4:55 AM 39.2 °F 32.0 °F 30.2 °F 70% 29.95 in 10.0 mi NNW 11.5 mph 19.6 mph N/A   Overcast
5:15 AM 39.2 °F 32.5 °F 28.4 °F 65% 29.96 in 10.0 mi NNW 10.4 mph 17.3 mph N/A   Overcast
5:35 AM 39.2 °F 30.2 °F 28.4 °F 65% 29.98 in 10.0 mi North 17.3 mph 24.2 mph N/A   Overcast
5:55 AM 37.4 °F 27.5 °F 28.4 °F 70% 30.01 in 10.0 mi NNW 18.4 mph 23.0 mph N/A   Overcast
6:35 AM 37.4 °F 28.5 °F 26.6 °F 65% 30.04 in 10.0 mi NNW 15.0 mph 21.9 mph N/A   Overcast
6:55 AM 37.4 °F 28.9 °F 26.6 °F 65% 30.05 in 10.0 mi NNW 13.8 mph 19.6 mph N/A   Overcast
7:15 AM 37.4 °F 28.9 °F 26.6 °F 65% 30.07 in 10.0 mi North 13.8 mph - N/A   Overcast
7:55 AM 37.4 °F 29.8 °F 26.6 °F 65% 30.11 in 10.0 mi North 11.5 mph - N/A   Overcast
8:15 AM 37.4 °F 29.3 °F 26.6 °F 65% 30.11 in 10.0 mi North 12.7 mph 17.3 mph N/A   Overcast
9:35 AM 39.2 °F 31.6 °F 28.4 °F 65% 30.15 in 10.0 mi North 12.7 mph - N/A   Overcast
9:55 AM 39.2 °F 30.8 °F 26.6 °F 61% 30.17 in 10.0 mi North 15.0 mph - N/A   Overcast
10:15 AM 39.2 °F 31.6 °F 28.4 °F 65% 30.18 in 10.0 mi North 12.7 mph - N/A   Overcast
10:35 AM 39.2 °F 31.2 °F 26.6 °F 61% 30.18 in 10.0 mi NNE 13.8 mph 20.7 mph N/A   Overcast
10:55 AM 39.2 °F 32.0 °F 26.6 °F 61% 30.18 in 10.0 mi North 11.5 mph 18.4 mph N/A   Overcast
11:15 AM 39.2 °F 32.5 °F 26.6 °F 61% 30.19 in 10.0 mi NNE 10.4 mph - N/A   Overcast
11:35 AM 39.2 °F 33.0 °F 26.6 °F 61% 30.18 in 10.0 mi NNE 9.2 mph - N/A   Overcast
11:55 AM 39.2 °F 33.6 °F 26.6 °F 61% 30.19 in 10.0 mi NNE 8.1 mph - N/A   Overcast
12:15 PM 39.2 °F 31.6 °F 26.6 °F 61% 30.17 in 10.0 mi NNE 12.7 mph - N/A   Overcast
12:35 PM 39.2 °F 33.6 °F 28.4 °F 65% 30.18 in 10.0 mi NNE 8.1 mph - N/A   Overcast
12:55 PM 39.2 °F 33.6 °F 28.4 °F 65% 30.18 in 10.0 mi North 8.1 mph - N/A   Overcast
1:15 PM 39.2 °F 33.6 °F 28.4 °F 65% 30.19 in 10.0 mi NNE 8.1 mph - N/A   Overcast
1:35 PM 39.2 °F 35.0 °F 26.6 °F 61% 30.19 in 10.0 mi North 5.8 mph - N/A   Overcast
1:55 PM 39.2 °F 34.2 °F 28.4 °F 65% 30.19 in 10.0 mi North 6.9 mph - N/A   Overcast
2:15 PM 39.2 °F 37.0 °F 28.4 °F 65% 30.19 in 10.0 mi NNE 3.5 mph - N/A   Overcast
2:35 PM 39.2 °F 33.6 °F 28.4 °F 65% 30.18 in 10.0 mi NNE 8.1 mph - N/A   Overcast
2:55 PM 39.2 °F 35.0 °F 28.4 °F 65% 30.18 in 10.0 mi NNE 5.8 mph - N/A   Overcast
3:15 PM 39.2 °F 35.9 °F 26.6 °F 61% 30.18 in 10.0 mi NNE 4.6 mph - N/A   Overcast
3:35 PM 39.2 °F 34.2 °F 28.4 °F 65% 30.17 in 10.0 mi NNE 6.9 mph - N/A   Overcast
3:55 PM 39.2 °F 34.2 °F 28.4 °F 65% 30.18 in 10.0 mi ENE 6.9 mph - N/A   Overcast
4:15 PM 39.2 °F 32.5 °F 28.4 °F 65% 30.18 in 10.0 mi NE 10.4 mph - N/A   Overcast
4:35 PM 39.2 °F 33.0 °F 28.4 °F 65% 30.18 in 10.0 mi ENE 9.2 mph - N/A   Overcast
4:55 PM 39.2 °F 33.0 °F 26.6 °F 61% 30.17 in 10.0 mi NE 9.2 mph - N/A   Overcast
5:15 PM 39.2 °F 33.6 °F 26.6 °F 61% 30.17 in 10.0 mi NE 8.1 mph - N/A   Overcast
5:35 PM 39.2 °F 35.0 °F 26.6 °F 61% 30.18 in 10.0 mi ENE 5.8 mph - N/A   Overcast
5:55 PM 39.2 °F 33.6 °F 26.6 °F 61% 30.18 in 10.0 mi East 8.1 mph - N/A   Overcast
6:15 PM 39.2 °F 33.0 °F 26.6 °F 61% 30.18 in 10.0 mi NE 9.2 mph - N/A   Overcast
6:35 PM 39.2 °F 32.5 °F 26.6 °F 61% 30.18 in 10.0 mi NE 10.4 mph - N/A   Overcast
6:55 PM 39.2 °F 33.6 °F 26.6 °F 61% 30.19 in 10.0 mi NE 8.1 mph - N/A   Overcast
7:15 PM 39.2 °F 35.0 °F 26.6 °F 61% 30.19 in 10.0 mi NE 5.8 mph - N/A   Overcast
7:35 PM 39.2 °F 35.0 °F 26.6 °F 61% 30.19 in 10.0 mi NE 5.8 mph - N/A   Overcast
7:55 PM 39.2 °F 33.0 °F 26.6 °F 61% 30.19 in 10.0 mi ENE 9.2 mph - N/A   Overcast
8:15 PM 39.2 °F 35.0 °F 26.6 °F 61% 30.19 in 10.0 mi East 5.8 mph - N/A   Overcast
8:35 PM 39.2 °F 33.6 °F 26.6 °F 61% 30.18 in 10.0 mi East 8.1 mph - N/A   Overcast
8:55 PM 39.2 °F 35.9 °F 26.6 °F 61% 30.18 in 10.0 mi ENE 4.6 mph - N/A   Overcast
9:15 PM 37.4 °F 31.4 °F 26.6 °F 65% 30.18 in 10.0 mi East 8.1 mph - N/A   Overcast
9:35 PM 37.4 °F 32.1 °F 26.6 °F 65% 30.18 in 10.0 mi East 6.9 mph - N/A   Overcast
9:55 PM 37.4 °F 33.8 °F 26.6 °F 65% 30.18 in 10.0 mi ESE 4.6 mph - N/A   Overcast
10:35 PM 39.2 °F 34.2 °F 26.6 °F 61% 30.18 in 10.0 mi ESE 6.9 mph - N/A   Overcast
10:55 PM 39.2 °F 35.9 °F 26.6 °F 61% 30.17 in 10.0 mi ESE 4.6 mph - N/A   Overcast
11:15 PM 39.2 °F 37.0 °F 26.6 °F 61% 30.16 in 10.0 mi ESE 3.5 mph - N/A   Overcast
11:35 PM 39.2 °F 35.9 °F 28.4 °F 65% 30.15 in 10.0 mi SE 4.6 mph - N/A   Overcast